Darstellungsparameter: Aktuell verwendete Einstellungen:
Skalierung der Graphiken ... ?
xyx+y,   Skalierungsfaktor:      Skalierung: Modus: x, Faktor: 1
Darstellungszeitraum ... ?
Vom - - bis: - -   Zeitraum: 27.02.2021 - 27.02.2021
Min/Max/Avg-Anzeige ... ?
Zeige MMA aktuell
Zeige MMA Monat
Zeige MMA alles
Zeige --A aktuell
Zeige --A Monat
Zeige --A alles
Keine MMA-Anzeige
MMA:
Keine MMA-Graphiken
MMA-Basis: 27.02.2021 - 27.02.2021
Quicknavigation für Darstellung... ?
Tage:      1T, 2T, 3T, 5T -1T -2T -3T -5T +1T +2T +3T +5T
Wochen: 1W, 2W, 3W -1W -2W -3W +1W +2W +3W
Monate: 1M, 3M, 6M -1M -3M -6M +1M +3M +6M
Jahre:    1J, 3J, 5J, 10J -1J -3J -5J -10J +1J +3J +5J +10J
Nutze für die Darstellung ... ?
Originaldaten oder Mittelwerte auf ...
Stundenbasis Tagesbasis Wochenbasis
Monatsbasis Jahresbasis      Datenbasis: Original-Daten
Darstellen als:
Statistik (Auto) Statistik J:M      Darstellung:

Der gewünschte Datumsbereich war nicht gültig/verfügbar und wurde korrigiert....
Das angegebene Enddatum (29.07.2022 23:59:59) liegt in der Zukunft.
Das angegebene Startdatum (29.07.2022 00:00:00) liegt in der Zukunft.


Zur Graphik,    zurück zur Übersicht aller Sensoren.
 
Tabellarische Datenbersicht: ?
 
Sensor: Nr:Datum:Temp:Feuchte:Taupunkt:
Aussen-T/F 1 27-02-2021 01:00:00 1.7 C 94 % 0.84 C
2 27-02-2021 01:05:00 1.6 C 94 % 0.74 C
3 27-02-2021 01:10:00 1.6 C 94 % 0.74 C
4 27-02-2021 01:15:00 1.5 C 94 % 0.64 C
5 27-02-2021 01:20:00 1.4 C 94 % 0.54 C
6 27-02-2021 01:25:00 1.4 C 94 % 0.54 C
7 27-02-2021 01:30:00 1.3 C 94 % 0.44 C
8 27-02-2021 01:35:00 1.3 C 94 % 0.44 C
9 27-02-2021 01:40:00 1.3 C 94 % 0.44 C
10 27-02-2021 01:45:00 1.2 C 94 % 0.34 C
11 27-02-2021 01:50:00 1.2 C 94 % 0.34 C
12 27-02-2021 01:55:00 1.1 C 94 % 0.24 C
13 27-02-2021 02:00:00 1.1 C 94 % 0.24 C
14 27-02-2021 02:05:00 1 C 94 % 0.15 C
15 27-02-2021 02:10:00 0.9 C 94 % 0.05 C
16 27-02-2021 02:15:00 0.9 C 94 % 0.05 C
17 27-02-2021 02:20:00 0.9 C 94 % 0.05 C
18 27-02-2021 02:25:00 0.9 C 94 % 0.05 C
19 27-02-2021 02:30:00 0.9 C 94 % 0.05 C
20 27-02-2021 02:35:00 0.8 C 94 % -0.05 C
21 27-02-2021 02:40:00 0.8 C 94 % -0.05 C
22 27-02-2021 02:45:00 0.7 C 94 % -0.15 C
23 27-02-2021 02:50:00 0.7 C 94 % -0.15 C
24 27-02-2021 02:55:00 0.7 C 94 % -0.15 C
25 27-02-2021 03:00:00 0.7 C 95 % -0.01 C
Sensor: Nr:Datum:Temp:Feuchte:Taupunkt:
Aussen-T/F 26 27-02-2021 03:05:00 0.7 C 95 % -0.01 C
27 27-02-2021 03:10:00 0.7 C 95 % -0.01 C
28 27-02-2021 03:15:00 0.6 C 95 % -0.11 C
29 27-02-2021 03:20:00 0.6 C 94 % -0.25 C
30 27-02-2021 03:25:00 0.5 C 94 % -0.35 C
31 27-02-2021 03:30:00 0.4 C 94 % -0.45 C
32 27-02-2021 03:35:00 0.3 C 94 % -0.55 C
33 27-02-2021 03:40:00 0.3 C 95 % -0.4 C
34 27-02-2021 03:45:00 0.3 C 95 % -0.4 C
35 27-02-2021 03:50:00 0.3 C 95 % -0.4 C
36 27-02-2021 03:55:00 0.2 C 95 % -0.5 C
37 27-02-2021 04:00:00 0.2 C 95 % -0.5 C
38 27-02-2021 04:05:00 0.2 C 95 % -0.5 C
39 27-02-2021 04:10:00 0.1 C 95 % -0.6 C
40 27-02-2021 04:15:00 0.1 C 95 % -0.6 C
41 27-02-2021 04:20:00 0.1 C 95 % -0.6 C
42 27-02-2021 04:25:00 0.1 C 95 % -0.6 C
43 27-02-2021 04:30:00 0.1 C 95 % -0.6 C
44 27-02-2021 04:35:00 0 C 95 % -0.7 C
45 27-02-2021 04:40:00 -0.1 C 95 % -0.8 C
46 27-02-2021 04:45:00 -0.1 C 95 % -0.8 C
47 27-02-2021 04:50:00 -0.1 C 95 % -0.8 C
48 27-02-2021 04:55:00 -0.1 C 95 % -0.8 C
49 27-02-2021 05:00:00 0 C 95 % -0.7 C
50 27-02-2021 05:05:00 -0.1 C 95 % -0.8 C
Sensor: Nr:Datum:Temp:Feuchte:Taupunkt:
Aussen-T/F 51 27-02-2021 05:10:00 -0.1 C 95 % -0.8 C
52 27-02-2021 05:15:00 -0.1 C 95 % -0.8 C
53 27-02-2021 05:20:00 -0.1 C 95 % -0.8 C
54 27-02-2021 05:25:00 -0.2 C 95 % -0.9 C
55 27-02-2021 05:30:00 -0.2 C 95 % -0.9 C
56 27-02-2021 05:35:00 -0.2 C 95 % -0.9 C
57 27-02-2021 05:40:00 -0.2 C 95 % -0.9 C
58 27-02-2021 05:45:00 -0.3 C 95 % -1 C
59 27-02-2021 05:50:00 -0.3 C 95 % -1 C
60 27-02-2021 05:55:00 -0.3 C 95 % -1 C
61 27-02-2021 06:00:00 -0.3 C 95 % -1 C
62 27-02-2021 06:05:00 -0.3 C 95 % -1 C
63 27-02-2021 06:10:00 -0.3 C 95 % -1 C
64 27-02-2021 06:15:00 -0.3 C 95 % -1 C
65 27-02-2021 06:20:00 -0.3 C 95 % -1 C
66 27-02-2021 06:25:00 -0.4 C 95 % -1.1 C
67 27-02-2021 06:30:00 -0.4 C 95 % -1.1 C
68 27-02-2021 06:35:00 -0.4 C 95 % -1.1 C
69 27-02-2021 06:40:00 -0.5 C 95 % -1.2 C
70 27-02-2021 06:45:00 -0.5 C 95 % -1.2 C
71 27-02-2021 06:50:00 -0.6 C 95 % -1.3 C
72 27-02-2021 06:55:00 -0.6 C 95 % -1.3 C
73 27-02-2021 07:00:00 -0.6 C 95 % -1.3 C
74 27-02-2021 07:05:00 -0.6 C 95 % -1.3 C
75 27-02-2021 07:10:00 -0.6 C 95 % -1.3 C
Sensor: Nr:Datum:Temp:Feuchte:Taupunkt:
Aussen-T/F 76 27-02-2021 07:15:00 -0.5 C 95 % -1.2 C
77 27-02-2021 07:20:00 -0.4 C 95 % -1.1 C
78 27-02-2021 07:25:00 -0.3 C 96 % -0.86 C

Legende:
   Min
   Max


Maximal/Minimal-Werte vom 27.02.2021 - 27.02.2021

Sensor Min Max Avg
Temp
(Aussen-T/F)
-0.6 °C
27-02-2021  06:50:00
1.7 °C
27-02-2021  01:00:00
0.29 °C
Feuchte
(Aussen-T/F)
94 %
27-02-2021  01:00:00
96 %
27-02-2021  07:25:00
94.65 %
Taupunkt
(Aussen-T/F)
-1.3 C
27-02-2021  06:50:00
0.84 C
27-02-2021  01:00:00
-0.45 C

Die Daten stammen von einer Davis Vantage Pro 2 Wetter-Station und werden unter Linux mit der Software wview2wettercgi und aufbereitet. Alle Angaben erfolgen ohne Gewähr für ihre Vollständigkeit oder Richtigkeit.
Kontakt: Rainer Krienke krienke@uni-koblenz.de . Meine Webseiten an der Uni Koblenz oder privat.
Version: $Revision: 0.78 $